User: anonymous   Login
Location: Unspecified
(0.0000°N, 0.0000°E)
Time: 20:52:58
(UTC+02:00)
Language:

Cosmos 1933 - Orbit

View from above orbital plane
View from above orbital plane
View from above satellite
View from above satellite

Ground track
Ground track

The orbit data is extracted from the following two-line orbital elements,

1 18958U 88020A   16240.49934280  .00000641  00000-0  45520-4 0  9992
2 18958  82.5298  27.1748 0011319 194.3879 165.7026 15.02989541547414
Epoch (UTC): 27 August 2016 11:59:03
Eccentricity: 0.0011319
inclination: 82.5298°
perigee height: 550 km
apogee height: 565 km
right ascension of ascending node: 27.1748°
argument of perigee: 194.3879°
revolutions per day: 15.02989541
mean anomaly at epoch: 165.7026°
orbit number at epoch: 54741

The dashed part of the orbit path shows where the satellite is in the earth's shadow,  

DLR